Tracking 25648 objects as of 17-May-2022
HD Live streaming from Space Station
objects crossing your sky now

FREGAT DEB

Track FREGAT DEB now!
10-day predictions


NORAD ID: 46237
Int'l Code: 2011-037JX
Perigee: 459.9 km
Apogee: 3,149.5 km
Inclination: 51.4 °
Period: 122.6 minutes
Semi major axis: 8175 km
RCS: Unknown
Launch date: July 18, 2011
Source: Commonwealth of Independent States (former USSR) (CIS)
Launch site: TYURATAM MISSILE AND SPACE COMPLEX (TTMTR)

Note: This is SATELLITE DEBRIS
aabbcc
Your satellite tracking list
Your tracking list is empty




NASA's NSSDC Master Catalog

Two Line Element Set (TLE):
1 46237U 11037JX  22136.53522351  .00061037  00000-0  14958-1 0  9999
2 46237  51.4272 310.8577 1644895  20.0177 345.8146 11.74394728 73052
Source of the keplerian elements: AFSPC